カタログに戻る

COSMOS 970 DEB

運用中LEO
NORAD 10535·DEBRIS·🇷🇺 Russia

打ち上げ Dec 21, 1977 から Baikonur Cosmodrome

Loading…

次のパス (今後24時間)

TLE

最新Source: Space-Track

元期: Sep 14, 2026, 12:01 UTC

1 10535U 77121C   26257.50095959  .00000201  00000-0  27401-3 0  9996
2 10535  65.8532 338.8525 0116984   8.9532   3.4595 13.76404145435154

AllMySatでCOSMOS 970 DEBをリアルタイム追跡

Download on the App Store